PROFILE

 METAR AND TAF INFORMATION
ADDS - METARS form results

(0609 UTC 22 September 2019)
http://aviationweather.gov/metar/data/
 
LFKJ 220600Z AUTO 03007KT 010V080 9999 ///TCU 22/17 Q1011 TEMPO RA
LFKJ 220530Z AUTO 03008KT 9999 ///TCU 22/18 Q1011 TEMPO RA
TAF LFKJ 220200Z 2203/2303 03005KT 9999 FEW033 BKN130 TEMPO 2203/2208 RA FEW035TCU TEMPO 2211/2218 4000 RA FEW030CB BKN050 BKN080 PROB40 TEMPO 2211/2215 27015G25KT 2000 TSRA SCT025CB BKN040 BKN070 

 AIRPORT MAP

 RUNWAY INFORMATION
Runway 02 Runway length 7897 ft Runway width 148 ft
Runway elevation 15 ft Runway displaced threshold 0 ft Runway heading 25
Runway 20 Runway length 7897 ft Runway width 148 ft
Runway elevation 18 ft Runway displaced threshold 744 ft Runway heading 205

 AIRPORT FREQUENCIES
Type AFIS Name AFIS Frequency 119.825 MHZ
Type APP Name AJACCIO AP Frequency 121.05 MHZ
Type ATIS Name AJACCIO AT Frequency 126.925 MHZ
Type GND Name AJACCIO GN Frequency 121.7 MHZ
Type TWR Name AJACCIO TW Frequency 118.075 MHZ

 AIRPORT NEAR NAVIGATION AIDS
Type NDB Name Ajaccio/Campo Dell Oro Frequency 341 KHZ